Previsão horária em Celiny

Hoje, 25 Julho, Domingo

Tempo Temperatura Precipitação Vento Pressão Humidade
00:00 +20°C° 0 mm 2 m/s 734 mmHg 72%
01:00 +19°C° 0 mm 2 m/s 733 mmHg 73%
02:00 +19°C° 0 mm 2 m/s 733 mmHg 71%
03:00 +19°C° 0 mm 2 m/s 733 mmHg 70%
04:00 +19°C° 0 mm 2 m/s 733 mmHg 68%
05:00 +21°C° 0 mm 2 m/s 733 mmHg 62%
06:00 +23°C° 0 mm 2 m/s 734 mmHg 57%
07:00 +24°C° 0 mm 2 m/s 734 mmHg 53%
08:00 +26°C° 0 mm 3 m/s 734 mmHg 48%
09:00 +27°C° 0 mm 3 m/s 734 mmHg 44%
10:00 +28°C° 0 mm 3 m/s 734 mmHg 39%
11:00 +27°C° 0 mm 3 m/s 734 mmHg 45%
12:00 +26°C° 0 mm 4 m/s 734 mmHg 51%
13:00 +25°C° 0 mm 4 m/s 734 mmHg 56%
14:00 +24°C° 0.1 mm 3 m/s 734 mmHg 60%
15:00 +23°C° 0.1 mm 2 m/s 734 mmHg 64%
16:00 +21°C° 0.1 mm 2 m/s 734 mmHg 67%
17:00 +21°C° 0 mm 2 m/s 733 mmHg 69%
18:00 +21°C° 0 mm 3 m/s 733 mmHg 70%
19:00 +21°C° 0 mm 3 m/s 733 mmHg 71%
20:00 +20°C° 0.1 mm 3 m/s 732 mmHg 74%
21:00 +19°C° 0.1 mm 3 m/s 732 mmHg 77%
22:00 +19°C° 0.1 mm 3 m/s 732 mmHg 79%
23:00 +19°C° 0 mm 3 m/s 732 mmHg 81%

Amanhã, 26 Julho, Segunda-feira

Tempo Temperatura Precipitação Vento Pressão Humidade
00:00 +18°C° 0 mm 2 m/s 732 mmHg 82%
01:00 +18°C° 0 mm 2 m/s 732 mmHg 84%
02:00 +18°C° 0.1 mm 2 m/s 732 mmHg 86%
03:00 +18°C° 0.1 mm 2 m/s 732 mmHg 89%
04:00 +18°C° 0.1 mm 2 m/s 732 mmHg 92%
05:00 +18°C° 0.4 mm 2 m/s 732 mmHg 91%
06:00 +19°C° 0.4 mm 2 m/s 732 mmHg 90%
07:00 +20°C° 0.4 mm 2 m/s 732 mmHg 88%
08:00 +21°C° 0.1 mm 2 m/s 733 mmHg 82%
09:00 +24°C° 0.1 mm 2 m/s 733 mmHg 75%
10:00 +25°C° 0.1 mm 3 m/s 733 mmHg 69%
11:00 +24°C° 0.6 mm 3 m/s 733 mmHg 73%
12:00 +24°C° 0.6 mm 2 m/s 733 mmHg 77%
13:00 +23°C° 0.6 mm 2 m/s 733 mmHg 81%
14:00 +24°C° 0.1 mm 2 m/s 733 mmHg 73%
15:00 +26°C° 0.1 mm 2 m/s 733 mmHg 66%
16:00 +27°C° 0.1 mm 2 m/s 733 mmHg 58%
17:00 +26°C° 0 mm 2 m/s 733 mmHg 61%
18:00 +26°C° 0 mm 1 m/s 733 mmHg 65%
19:00 +25°C° 0 mm 1 m/s 732 mmHg 68%
20:00 +24°C° 0.1 mm 1 m/s 732 mmHg 72%
21:00 +23°C° 0.1 mm 1 m/s 732 mmHg 75%
22:00 +21°C° 0.1 mm 2 m/s 732 mmHg 78%
23:00 +21°C° 0.4 mm 2 m/s 732 mmHg 81%

Depois de amanhã, 27 Julho, Terça-feira

Tempo Temperatura Precipitação Vento Pressão Humidade
00:00 +21°C° 0.4 mm 1 m/s 733 mmHg 83%
01:00 +21°C° 0.4 mm 1 m/s 733 mmHg 86%
02:00 +21°C° 0.9 mm 1 m/s 733 mmHg 89%
03:00 +21°C° 0.9 mm 1 m/s 733 mmHg 92%
04:00 +20°C° 0.9 mm 1 m/s 733 mmHg 95%
05:00 +21°C° 0 mm 1 m/s 733 mmHg 93%
06:00 +20°C° 0 mm 2 m/s 734 mmHg 91%
07:00 +20°C° 0 mm 2 m/s 734 mmHg 90%
08:00 +23°C° 0 mm 2 m/s 734 mmHg 80%
09:00 +25°C° 0 mm 3 m/s 734 mmHg 70%
10:00 +26°C° 0 mm 3 m/s 735 mmHg 60%
11:00 +27°C° 0.1 mm 3 m/s 735 mmHg 56%
12:00 +29°C° 0.1 mm 3 m/s 735 mmHg 52%
13:00 +30°C° 0.1 mm 3 m/s 735 mmHg 48%
14:00 +29°C° 0 mm 2 m/s 735 mmHg 50%
15:00 +28°C° 0 mm 2 m/s 735 mmHg 53%
16:00 +28°C° 0 mm 1 m/s 735 mmHg 55%
17:00 +27°C° 0 mm 1 m/s 735 mmHg 58%
18:00 +26°C° 0 mm 1 m/s 734 mmHg 61%
19:00 +23°C° 0 mm 0 m/s 734 mmHg 64%
20:00 +25°C° 0 mm 1 m/s 734 mmHg 67%
21:00 +24°C° 0 mm 1 m/s 735 mmHg 69%
22:00 +23°C° 0 mm 1 m/s 735 mmHg 72%
23:00 +22°C° 0 mm 1 m/s 735 mmHg 73%

28 Julho, Quarta-feira

Tempo Temperatura Precipitação Vento Pressão Humidade
00:00 +22°C° 0 mm 1 m/s 735 mmHg 74%
01:00 +22°C° 0 mm 1 m/s 735 mmHg 75%
02:00 +21°C° 0 mm 1 m/s 735 mmHg 77%
03:00 +21°C° 0 mm 1 m/s 735 mmHg 78%
04:00 +21°C° 0 mm 1 m/s 734 mmHg 80%
05:00 +22°C° 0 mm 1 m/s 735 mmHg 75%
06:00 +23°C° 0 mm 1 m/s 735 mmHg 71%
07:00 +25°C° 0 mm 1 m/s 735 mmHg 66%
08:00 +26°C° 0 mm 1 m/s 735 mmHg 60%
09:00 +28°C° 0 mm 1 m/s 735 mmHg 55%
10:00 +29°C° 0 mm 1 m/s 734 mmHg 49%
11:00 +30°C° 0 mm 1 m/s 734 mmHg 46%
12:00 +31°C° 0 mm 1 m/s 734 mmHg 43%
13:00 +31°C° 0 mm 1 m/s 734 mmHg 40%
14:00 +31°C° 0 mm 1 m/s 734 mmHg 43%
15:00 +30°C° 0 mm 2 m/s 733 mmHg 46%
16:00 +29°C° 0 mm 2 m/s 733 mmHg 50%
17:00 +27°C° 0.6 mm 3 m/s 733 mmHg 58%
18:00 +25°C° 0.6 mm 3 m/s 734 mmHg 67%
19:00 +21°C° 0.6 mm 4 m/s 734 mmHg 76%
20:00 +20°C° 1.5 mm 4 m/s 734 mmHg 81%
21:00 +19°C° 1.5 mm 3 m/s 735 mmHg 87%
22:00 +18°C° 1.5 mm 3 m/s 735 mmHg 92%
23:00 +18°C° 0.5 mm 3 m/s 735 mmHg 93%

29 Julho, Quinta-feira

Tempo Temperatura Precipitação Vento Pressão Humidade
00:00 +18°C° 0.5 mm 3 m/s 735 mmHg 93%
01:00 +18°C° 0.5 mm 2 m/s 735 mmHg 93%
02:00 +18°C° 0.1 mm 2 m/s 735 mmHg 93%
03:00 +18°C° 0.1 mm 2 m/s 736 mmHg 93%
04:00 +19°C° 0.1 mm 1 m/s 736 mmHg 93%
05:00 +19°C° 0 mm 1 m/s 736 mmHg 89%
06:00 +20°C° 0 mm 1 m/s 736 mmHg 85%
07:00 +20°C° 0 mm 2 m/s 736 mmHg 81%
08:00 +21°C° 0 mm 2 m/s 736 mmHg 73%
09:00 +24°C° 0 mm 2 m/s 736 mmHg 65%
10:00 +25°C° 0 mm 2 m/s 736 mmHg 57%
11:00 +26°C° 0 mm 2 m/s 736 mmHg 53%
12:00 +27°C° 0 mm 1 m/s 736 mmHg 49%
13:00 +28°C° 0 mm 1 m/s 736 mmHg 44%
14:00 +29°C° 0 mm 1 m/s 735 mmHg 43%
15:00 +29°C° 0 mm 1 m/s 735 mmHg 42%
16:00 +29°C° 0 mm 1 m/s 735 mmHg 41%
17:00 +28°C° 0 mm 1 m/s 735 mmHg 47%
18:00 +26°C° 0 mm 1 m/s 734 mmHg 53%
19:00 +25°C° 0 mm 2 m/s 734 mmHg 59%
20:00 +24°C° 0 mm 2 m/s 734 mmHg 63%
21:00 +23°C° 0 mm 2 m/s 734 mmHg 67%
22:00 +21°C° 0 mm 2 m/s 734 mmHg 71%
23:00 +21°C° 0 mm 2 m/s 734 mmHg 73%

30 Julho, Sexta-feira

Tempo Temperatura Precipitação Vento Pressão Humidade
00:00 +20°C° 0 mm 2 m/s 733 mmHg 75%
01:00 +20°C° 0 mm 2 m/s 733 mmHg 76%
02:00 +20°C° 0 mm 2 m/s 733 mmHg 78%
03:00 +20°C° 0 mm 2 m/s 733 mmHg 79%
04:00 +19°C° 0 mm 2 m/s 733 mmHg 80%
05:00 +20°C° 0.1 mm 2 m/s 733 mmHg 77%
06:00 +23°C° 0.1 mm 2 m/s 733 mmHg 73%
07:00 +24°C° 0.1 mm 3 m/s 733 mmHg 70%
08:00 +26°C° 0 mm 3 m/s 733 mmHg 60%
09:00 +28°C° 0 mm 3 m/s 732 mmHg 51%
10:00 +30°C° 0 mm 3 m/s 732 mmHg 41%
11:00 +32°C° 0 mm 4 m/s 732 mmHg 40%
12:00 +33°C° 0 mm 4 m/s 732 mmHg 38%
13:00 +33°C° 0 mm 4 m/s 731 mmHg 36%
14:00 +33°C° 0 mm 4 m/s 731 mmHg 37%
15:00 +34°C° 0 mm 4 m/s 731 mmHg 37%
16:00 +34°C° 0 mm 5 m/s 731 mmHg 37%
17:00 +30°C° 0.8 mm 4 m/s 731 mmHg 52%
18:00 +27°C° 0.8 mm 4 m/s 731 mmHg 67%
19:00 +23°C° 0.8 mm 4 m/s 731 mmHg 81%
20:00 +22°C° 1.2 mm 3 m/s 731 mmHg 84%
21:00 +23°C° 1.2 mm 2 m/s 731 mmHg 88%
22:00 +22°C° 1.2 mm 1 m/s 732 mmHg 91%
23:00 +22°C° 1.5 mm 1 m/s 732 mmHg 91%
Mostrar mais

Necessitamos do seu Consentimento

A Meteoprog e os seus Fornecedores de Serviços podem armazenar e aceder a dados pessoais como cookies, identificadores do dispositivo ou outras tecnologias semelhantes existentes no seu dispositivo e processar estes dados para personalizar conteúdos e anúncios, assim como funcionalidades nas redes sociais e análise de tráfego.

  • Armazenar e/ou aceder a informações no seu dispositivo

    Os cookies, identificadores do dispositivo ou outras informações podem ser armazenados ou acedidos no seu dispositivo, para os fins acima indicados.

  • Anúncios e conteúdos personalizados, medição de anúncios e conteúdos, dados sobre o público-alvo e desenvolvimento de produtos

    Os anúncios e os conteúdos podem ser personalizados com base num perfil. Podem ser adicionados dados adicionais para uma maior personalização dos anúncios e dos conteúdos. A eficácia dos anúncios e dos conteúdos pode ser medida. Podem ser obtidas informações sobre o público que visualizou os anúncios e os conteúdos. Estes dados podem ser usados para desenvolver ou melhorar sistemas, softwares ou a experiência do utilizador.

Ao clicar em "Eu concordo”, permitirá o uso de cookies, identificadores do dispositivo e web beacons mencionados ou outras tecnologias semelhantes. As configurações do navegador do seu dispositivo podem ser alteradas.

Para certos fins, podem ser invocados interesses legítimos ao invés de consentimento. Pode ler mais informação sobre este assunto na nossa Política de Privacidade e Cookies.